Theta_e
346 352 362 361 360 361 360 359 361 358 358 359 359 360 359 359 359 358 358 357 357 356 356 356 356 356 357 357 358 358 358 358 356 357 359 360 361 360 359 359 358 354 357
352 357 362 361 360 361 359 359 360 359 360 359 359 357 358 358 358 358 357 357 357 356 356 355 355 354 356 356 358 358 356 356 356 359 358 358 359 359 358 358 357 354 356
355 359 359 361 360 360 359 359 359 359 359 358 357 356 356 356 356 357 357 358 357 356 355 354 355 353 354 355 357 357 355 355 356 356 357 352 354 358 357 357 357 355 355
355 357 357 360 361 360 359 358 358 357 356 355 354 352 351 348 349 352 353 354 355 357 357 356 355 354 353 354 354 356 356 354 355 355 349 351 353 358 358 357 354 355 354
354 355 355 360 361 360 359 358 355 353 353 352 352 350 348 345 344 345 346 346 349 353 354 356 356 354 353 353 354 353 354 354 355 350 347 347 346 356 357 356 354 354 354
351 354 359 360 359 358 354 354 353 349 345 347 350 349 346 347 345 344 343 343 344 345 346 351 354 355 354 353 352 353 353 353 351 341 344 347 347 354 357 355 354 353 352
348 352 354 358 355 351 350 347 345 341 342 344 349 343 343 346 344 344 345 344 343 343 343 345 347 351 354 354 353 353 353 352 342 340 342 344 347 355 355 355 354 352 351
349 352 354 357 354 350 344 341 339 338 338 339 339 338 338 338 338 339 340 340 340 340 342 343 345 344 347 352 354 354 353 348 341 340 341 343 348 352 354 353 353 351 350
350 348 347 346 346 349 348 338 336 335 335 335 333 332 331 331 333 334 336 337 336 338 337 339 343 339 336 345 350 353 352 347 336 338 340 339 347 352 353 351 351 350 348
342 339 335 331 329 319 323 336 334 332 331 331 328 326 324 323 325 329 330 332 332 332 332 332 332 330 330 335 339 345 351 349 339 337 336 336 345 349 350 349 350 349 347
331 329 323 318 315 310 312 324 325 327 326 322 318 321 312 308 310 313 325 327 327 326 326 327 327 326 324 325 329 333 338 340 342 336 336 339 344 347 347 349 348 348 346
315 311 308 307 306 305 309 303 304 308 304 304 303 303 304 304 310 311 317 321 322 321 321 322 322 320 315 311 313 320 320 326 335 338 336 343 346 348 348 348 349 348 347
308 305 305 303 305 305 303 301 301 301 302 302 301 302 302 304 303 303 304 304 304 313 306 308 307 307 306 308 308 310 313 316 322 328 337 343 346 348 349 349 349 348 348
303 303 304 304 304 304 304 301 300 300 300 300 300 302 301 300 301 301 302 302 302 303 303 303 302 303 304 305 303 303 305 308 313 317 322 329 335 342 347 347 348 348 348
302 301 302 302 301 301 300 299 300 300 299 300 300 302 301 300 300 301 301 302 301 302 302 301 301 302 301 302 302 302 303 304 307 312 315 322 325 333 339 344 346 347 348
302 301 301 301 300 300 299 298 298 298 298 299 299 301 302 300 300 301 300 301 300 300 301 300 300 300 299 300 301 302 302 302 305 306 309 310 320 323 328 332 339 343 345
300 299 299 300 300 299 299 298 297 298 298 298 298 300 302 301 299 300 300 299 299 300 301 300 299 300 298 300 298 300 301 302 302 299 303 307 311 313 315 318 324 332 340
300 297 297 303 299 298 298 298 297 297 296 297 297 297 302 302 300 299 299 299 300 300 300 299 298 299 297 297 296 297 298 300 298 299 302 306 303 305 307 313 318 323 327
301 296 296 298 298 298 296 296 296 296 295 296 296 296 299 302 300 298 298 298 300 299 298 299 297 298 296 296 299 297 297 297 297 298 296 302 301 302 302 309 313 316 321
299 297 297 297 297 296 295 294 294 295 295 295 295 296 297 299 299 297 297 297 298 298 297 297 295 297 296 296 300 298 296 297 296 295 296 299 300 299 301 305 303 307 318
296 295 296 296 295 295 293 292 292 293 293 294 295 297 296 297 298 296 296 296 297 297 295 296 295 295 294 295 294 293 293 294 292 294 294 297 298 299 300 301 302 305 311
297 296 296 297 295 296 296 293 293 292 293 294 296 296 296 296 297 296 295 295 296 295 294 294 294 293 294 294 292 290 287 289 291 295 295 297 295 296 299 300 302 302 306
298 296 296 296 296 296 295 294 293 293 293 294 294 295 295 296 297 296 295 294 294 294 293 293 293 292 291 293 293 292 287 285 291 291 292 294 293 295 297 298 300 302 302
299 298 297 297 296 297 295 294 293 293 291 292 293 294 294 295 295 295 295 294 293 293 293 293 296 293 292 291 291 296 293 292 288 288 291 293 294 296 296 298 299 300 301
301 297 297 297 296 297 296 296 294 292 292 292 292 293 292 293 294 295 294 294 293 293 293 293 292 292 292 291 290 291 290 291 291 290 288 291 295 296 297 297 298 299 300
300 298 296 296 296 296 295 295 294 293 292 292 291 292 292 292 293 294 295 294 293 293 293 293 293 292 291 291 291 292 291 290 289 289 288 291 292 295 296 298 298 299 301
Wind_Speed
3 4 8 7 6 8 9 10 10 10 9 9 10 10 10 9 9 8 8 8 7 7 7 6 6 5 5 7 6 5 5 6 6 7 8 9 9 11 11 11 12 7 13
8 5 7 7 7 9 9 10 10 9 9 9 9 10 10 10 10 9 8 8 8 7 6 6 5 4 4 5 5 4 5 6 7 8 8 7 8 10 11 11 11 9 13
7 6 5 7 8 10 10 11 10 10 10 10 10 11 11 11 11 11 10 10 9 9 8 6 6 3 2 4 4 4 4 5 5 7 8 4 4 11 11 12 12 13 12
8 5 5 9 9 11 12 11 10 10 10 11 11 12 12 14 13 12 11 10 10 10 10 9 7 5 2 2 3 3 4 3 4 6 2 1 4 11 12 13 12 12 11
6 5 6 9 10 12 12 12 12 12 12 12 12 12 12 13 14 13 12 13 12 11 11 10 9 6 4 3 4 3 3 5 4 4 2 1 2 7 12 12 11 11 11
5 6 8 10 10 13 13 14 13 12 12 9 9 10 14 10 14 12 12 13 14 13 14 12 11 10 7 3 2 3 4 6 7 4 2 4 4 8 12 11 9 9 8
6 6 6 12 15 14 14 14 13 14 14 14 14 14 14 15 14 14 13 13 12 13 13 13 14 13 11 7 3 3 4 5 4 3 3 3 5 10 12 12 9 8 8
8 6 6 12 13 12 12 14 14 13 13 14 15 15 14 14 14 14 13 13 14 15 17 13 14 15 14 11 10 4 5 5 4 4 4 4 9 10 11 11 9 9 9
6 6 5 6 9 10 10 13 13 13 14 14 15 15 14 14 14 15 15 14 14 17 16 18 18 19 18 17 14 11 6 4 3 3 5 3 12 12 12 10 9 10 9
6 6 6 6 6 6 5 13 13 13 14 14 15 15 15 15 15 15 15 14 14 15 16 17 18 19 19 20 19 17 10 6 3 2 3 4 14 13 11 9 10 10 10
4 4 5 6 6 6 6 8 12 14 13 14 12 14 10 5 6 9 13 14 15 15 16 16 17 17 17 19 20 21 17 6 3 3 2 9 13 14 13 10 10 11 12
6 4 5 6 7 6 5 6 6 7 5 5 6 6 5 6 6 8 11 16 16 17 17 17 17 17 13 5 5 12 5 7 6 4 3 11 12 12 10 11 9 12 13
8 5 7 6 7 7 5 4 3 3 3 4 6 6 6 5 4 4 4 4 5 12 5 8 8 6 7 5 5 5 6 6 4 5 9 15 14 14 13 11 10 11 15
9 9 8 7 6 6 4 4 4 4 3 3 4 6 4 3 4 4 4 4 4 4 6 5 4 6 7 7 7 7 7 6 5 5 9 20 21 21 15 16 15 13 18
10 9 9 8 7 6 6 5 4 4 4 4 4 4 4 4 4 3 4 4 4 4 4 5 5 5 6 6 6 7 7 7 7 5 4 19 21 22 22 21 20 17 17
10 12 9 8 8 7 6 6 4 4 4 4 3 4 5 4 3 4 4 3 4 3 4 4 4 5 5 5 6 6 5 6 6 7 7 8 21 22 24 24 24 23 20
9 9 11 9 8 8 8 6 5 4 4 4 3 4 6 4 4 4 3 3 3 3 5 5 5 5 5 5 6 6 5 6 5 6 6 7 10 18 22 25 26 26 26
9 11 9 9 9 8 7 6 4 4 4 4 3 3 5 5 4 4 3 2 3 3 3 3 3 4 4 4 4 5 5 5 6 5 5 5 6 7 14 22 24 26 27
13 11 10 9 10 8 7 5 5 6 4 4 3 3 5 4 4 3 2 2 3 2 3 2 3 3 3 5 5 5 5 5 5 5 4 5 5 5 7 17 24 23 24
11 11 10 8 9 8 6 5 3 3 3 3 4 4 5 4 4 3 1 0 1 1 2 2 2 2 1 3 4 5 5 4 4 4 8 8 6 7 4 7 10 11 23
9 11 13 12 9 9 4 4 3 4 3 2 4 5 5 4 4 3 2 2 1 1 1 0 1 2 3 1 2 4 4 5 2 2 4 4 7 10 5 5 7 8 9
16 16 14 14 13 10 8 4 4 4 3 3 3 4 5 4 4 4 3 2 2 1 1 1 1 1 2 1 1 1 3 5 2 7 3 4 6 4 7 9 6 12 11
18 19 19 17 16 13 9 5 3 4 3 2 2 2 4 5 5 4 4 3 3 2 1 1 1 3 2 2 1 1 4 3 11 2 5 3 5 4 5 5 8 8 11
20 18 18 17 17 14 12 9 7 6 5 4 4 3 4 5 4 4 5 4 4 3 3 2 3 2 3 3 2 3 3 3 3 9 1 3 4 5 6 5 8 10 10
19 19 18 17 16 14 14 12 9 5 4 3 3 5 4 3 4 5 5 4 4 3 3 4 3 4 3 3 4 2 3 2 4 5 11 16 8 4 6 8 10 9 10
15 16 17 18 17 14 15 12 12 11 8 5 4 4 4 3 3 4 4 4 4 3 4 4 5 5 5 4 3 4 4 4 4 4 6 12 15 10 8 8 11 11 9
Wind_Direction
217 225 143 130 119 110 98 93 97 91 93 86 86 82 80 79 76 77 82 78 73 67 63 55 49 47 56 58 63 81 122 140 131 127 126 121 125 126 124 125 122 122 121
137 168 141 135 128 113 98 100 98 92 88 88 82 78 76 72 69 69 63 57 58 64 60 55 46 48 73 58 55 79 110 132 131 135 137 126 128 129 128 123 130 129 127
130 134 133 137 128 120 109 102 95 90 80 79 77 70 67 64 64 60 54 48 46 39 35 33 35 61 81 55 52 71 111 118 132 139 145 140 146 143 145 146 140 140 138
129 120 130 136 133 124 118 109 101 94 90 84 81 79 76 64 60 55 53 52 50 42 37 29 29 31 44 47 29 106 117 137 136 127 78 80 174 161 156 157 149 145 146
118 130 147 139 136 129 118 108 101 90 79 77 75 73 73 67 61 57 56 50 46 42 37 37 35 31 25 352 354 40 117 126 136 68 356 250 285 180 170 168 159 160 157
128 130 138 141 140 114 110 104 95 82 71 71 76 72 58 60 56 47 51 49 47 43 41 38 37 32 26 4 317 345 49 133 86 33 318 222 219 201 179 176 173 171 175
139 133 139 139 119 111 109 104 96 84 77 72 72 68 59 52 52 48 48 40 41 35 43 39 40 33 21 21 331 273 96 82 82 33 19 227 233 214 206 195 178 180 186
134 128 128 124 118 113 108 98 92 83 76 73 70 64 61 55 54 46 47 50 43 43 42 34 45 41 31 16 11 281 126 75 39 6 4 335 273 234 234 216 185 180 182
124 112 104 108 118 105 101 101 91 84 78 76 70 64 59 58 52 50 41 46 43 45 42 43 38 37 28 18 16 355 111 94 69 358 339 332 313 260 243 247 217 194 195
112 120 116 84 85 84 73 101 94 85 79 73 70 63 59 52 51 47 45 49 48 46 44 43 40 36 31 29 25 11 342 136 79 343 317 311 313 315 299 268 250 211 204
121 124 128 121 112 110 86 92 89 86 83 76 66 66 54 41 46 34 49 46 48 45 44 42 42 38 35 28 25 25 20 357 355 330 312 300 305 301 287 301 269 222 208
169 172 155 149 139 113 103 99 93 91 86 77 73 66 62 49 47 55 45 45 43 44 42 42 44 39 31 21 17 24 16 4 0 326 297 296 299 297 288 283 276 235 219
175 162 167 159 146 132 126 119 98 95 91 77 71 67 54 53 38 37 32 24 20 34 31 33 28 31 25 26 17 15 8 12 4 3 345 330 305 294 291 280 283 251 227
174 174 171 166 145 144 130 124 127 115 104 92 83 84 75 60 48 46 41 30 36 19 27 28 26 21 24 20 19 15 16 13 7 2 356 356 357 350 319 302 285 268 234
178 178 178 160 154 152 135 131 128 126 118 128 105 100 95 80 71 65 44 39 35 25 34 28 25 24 23 15 16 17 12 9 7 1 349 3 359 358 352 338 327 311 241
185 183 166 167 158 152 147 143 148 137 135 132 122 125 109 104 95 76 55 38 33 32 33 40 32 27 18 11 11 11 13 9 9 3 0 354 3 4 359 350 340 328 314
196 172 173 162 157 152 154 149 154 155 141 143 146 138 126 115 98 97 82 46 22 18 31 26 18 25 22 9 9 360 1 358 7 5 9 0 2 2 359 351 343 337 328
180 180 166 163 159 153 155 156 157 155 152 158 159 145 132 125 111 94 80 45 9 28 32 20 19 11 13 8 346 349 349 346 355 15 11 7 359 359 349 347 343 336 329
186 168 169 158 161 158 155 152 158 159 162 171 165 162 145 136 121 104 77 10 23 29 28 9 3 43 2 346 336 338 330 338 332 1 352 346 354 351 339 339 341 333 325
179 172 166 161 158 156 141 128 123 143 175 178 185 180 158 155 146 124 117 354 61 48 3 24 20 353 286 307 325 316 294 303 336 354 340 336 332 337 322 328 330 326 322
169 166 172 164 170 153 148 145 146 183 183 202 204 188 176 171 170 165 185 179 141 149 258 340 356 341 315 357 330 302 315 253 310 281 296 293 316 326 333 330 321 325 314
183 183 178 180 171 173 168 157 154 158 191 174 189 193 190 187 190 187 193 197 169 165 318 329 167 324 280 298 303 282 327 317 303 313 254 256 258 289 308 317 304 319 313
189 185 184 180 175 177 170 131 99 85 65 129 202 192 202 192 195 196 191 175 165 160 215 233 215 172 247 304 213 202 335 272 313 190 277 260 302 292 284 280 292 291 302
197 187 181 179 178 179 167 163 160 170 161 198 176 176 180 183 186 196 169 164 167 174 199 224 196 186 159 251 311 228 236 235 307 322 29 285 256 288 288 287 293 289 290
185 183 182 178 178 176 175 175 171 163 170 152 153 169 185 189 201 187 170 175 182 181 211 234 245 217 195 208 195 236 250 271 233 235 300 310 299 279 288 295 293 285 280
184 182 178 175 181 175 175 177 176 172 170 157 170 186 195 197 212 205 196 199 198 213 222 244 234 243 249 228 229 220 205 210 226 220 263 290 296 300 290 296 295 277 273